Temperature
11 11 11 11 11 11 10 9 9 10 10 11 11 10 10 10 10 10 9 9 8 8 8 8 7 7 7 6 6 6 6 6 5 5 5 5 4 4 4 3 3 3 3 2
11 11 10 10 10 10 10 9 9 10 10 10 10 10 10 10 9 9 8 8 8 7 7 7 6 6 6 6 6 5 5 5 5 4 4 4 4 3 3 3 2 2 2 1
8 9 9 8 9 9 9 9 9 9 9 9 9 9 9 9 8 8 7 7 7 6 6 6 6 5 5 5 5 5 4 4 4 3 3 3 3 2 2 2 1 1 1 0
7 8 8 10 10 10 10 10 9 9 8 8 8 9 9 8 8 7 7 6 6 6 5 5 5 5 4 4 4 4 4 3 3 2 2 2 1 1 1 0 -0 -0 -0 -0
6 7 7 8 10 11 11 9 8 8 8 8 8 7 8 8 7 6 6 6 5 5 5 5 4 4 4 4 4 3 3 2 2 1 1 1 0 -0 -0 -1 -1 -1 -1 -1
6 7 7 9 10 11 10 8 8 7 7 7 6 4 5 7 6 6 5 5 4 4 4 4 4 3 3 3 3 2 2 1 1 0 -0 -0 -1 -1 -1 -2 -2 -2 -2 -2
5 6 7 8 9 10 9 8 7 7 7 6 5 5 6 5 5 5 4 4 4 4 3 3 3 3 2 2 2 1 1 0 0 -0 -1 -1 -2 -2 -2 -2 -2 -3 -3 -2
4 5 6 9 9 8 7 7 7 7 6 6 5 5 5 5 4 4 4 3 3 3 3 3 2 2 1 1 1 0 -0 -1 -1 -1 -2 -2 -2 -3 -3 -3 -3 -3 -3 -3
6 7 8 9 8 7 7 7 6 6 5 5 5 4 4 4 4 4 3 3 3 2 2 2 1 1 0 0 -0 -1 -1 -2 -2 -2 -2 -3 -3 -3 -4 -4 -4 -4 -4 -4
5 6 7 7 7 6 6 6 5 5 5 4 4 4 3 3 3 3 3 2 2 1 1 1 1 0 -0 -1 -1 -2 -2 -3 -3 -3 -3 -4 -4 -4 -5 -5 -5 -5 -4 -4
5 6 6 6 6 5 5 5 5 5 4 4 3 3 3 3 2 2 2 1 1 1 0 0 -0 -1 -1 -2 -2 -3 -3 -4 -4 -4 -4 -5 -5 -5 -5 -5 -5 -5 -4 -4
5 6 5 5 5 5 5 5 5 4 4 4 3 3 2 2 2 2 1 1 0 0 -0 -1 -1 -1 -2 -2 -3 -4 -4 -4 -5 -5 -5 -5 -5 -5 -5 -5 -5 -4 -4 -4
6 6 6 5 5 5 4 4 4 4 3 3 3 2 2 1 1 1 1 0 -0 -1 -1 -1 -2 -2 -2 -3 -4 -5 -5 -5 -5 -6 -6 -6 -6 -6 -6 -5 -4 -4 -4 -4
5 5 5 5 4 4 4 4 3 3 3 2 2 2 1 1 1 0 0 -0 -1 -1 -2 -2 -2 -3 -3 -4 -5 -5 -5 -6 -6 -6 -6 -6 -6 -6 -6 -6 -5 -5 -4 -4
5 5 4 4 4 4 3 3 3 3 2 2 2 1 1 0 0 -0 -0 -1 -1 -2 -2 -2 -3 -3 -4 -5 -5 -6 -6 -6 -6 -6 -6 -6 -6 -6 -6 -6 -6 -5 -5 -5
4 4 4 4 3 3 3 2 2 2 2 1 1 1 0 -0 -0 -1 -1 -2 -2 -2 -3 -3 -4 -4 -5 -5 -6 -6 -6 -6 -6 -6 -6 -6 -6 -6 -6 -6 -6 -6 -6 -5
4 3 3 3 3 2 2 2 1 1 1 1 1 0 -0 -1 -1 -1 -1 -2 -3 -3 -3 -4 -4 -5 -5 -6 -6 -7 -6 -6 -6 -6 -6 -6 -6 -6 -6 -6 -6 -6 -6 -6
3 3 2 2 2 2 2 1 1 1 1 0 -0 -0 -1 -1 -1 -2 -2 -2 -3 -3 -3 -4 -5 -5 -6 -6 -7 -7 -7 -7 -7 -7 -6 -6 -6 -6 -6 -6 -6 -6 -6 -6
2 2 2 2 2 1 1 1 1 0 0 -0 -1 -1 -1 -1 -2 -2 -3 -3 -3 -4 -4 -5 -5 -6 -6 -6 -7 -7 -7 -7 -7 -7 -6 -6 -6 -6 -6 -7 -7 -7 -7 -7
2 2 2 1 1 1 1 0 0 -0 -0 -1 -1 -1 -2 -2 -2 -3 -3 -3 -4 -4 -5 -5 -6 -6 -7 -7 -7 -7 -7 -7 -7 -7 -7 -6 -7 -7 -7 -7 -7 -7 -7 -7
1 1 1 1 0 0 0 -0 -1 -1 -1 -1 -2 -2 -2 -2 -3 -3 -4 -4 -4 -5 -6 -6 -7 -7 -7 -7 -7 -7 -7 -7 -7 -7 -7 -7 -7 -7 -7 -7 -7 -7 -7 -7
0 0 -0 -0 -0 -0 -1 -1 -1 -1 -2 -2 -2 -2 -3 -3 -3 -4 -4 -5 -5 -6 -6 -7 -7 -7 -8 -7 -7 -7 -7 -7 -7 -7 -7 -7 -7 -7 -7 -7 -7 -7 -8 -8
-0 -1 -1 -1 -1 -1 -1 -1 -2 -2 -2 -3 -3 -3 -3 -4 -4 -4 -5 -5 -6 -6 -7 -7 -7 -8 -8 -8 -8 -8 -8 -8 -8 -8 -8 -8 -8 -8 -8 -8 -8 -8 -8 -8
-1 -1 -1 -1 -2 -2 -2 -2 -2 -3 -3 -3 -3 -3 -4 -4 -4 -5 -5 -6 -6 -6 -7 -7 -8 -8 -8 -8 -8 -8 -8 -8 -8 -8 -8 -8 -8 -8 -8 -8 -8 -8 -8 -8
-2 -2 -2 -2 -3 -3 -3 -3 -3 -3 -3 -3 -3 -4 -4 -4 -5 -5 -6 -6 -6 -7 -7 -7 -8 -8 -8 -9 -9 -9 -8 -8 -8 -8 -8 -8 -8 -8 -8 -8 -8 -8 -8 -8
-2 -3 -3 -3 -3 -3 -4 -4 -4 -4 -4 -4 -4 -4 -4 -5 -5 -6 -6 -7 -7 -7 -8 -8 -8 -9 -9 -9 -9 -9 -9 -9 -8 -8 -8 -8 -8 -8 -8 -8 -8 -8 -8 -8
-3 -3 -3 -3 -3 -4 -4 -5 -5 -5 -5 -5 -5 -5 -5 -6 -6 -7 -7 -7 -8 -8 -8 -9 -9 -9 -9 -9 -9 -9 -9 -9 -9 -8 -8 -8 -8 -8 -8 -8 -8 -7 -7 -7
Wind_Speed
7 6 5 8 11 9 10 10 11 10 11 12 8 4 1 2 4 4 5 6 6 7 7 8 8 8 8 9 9 8 9 9 10 10 10 10 11 11 11 11 11 12 12 13
4 6 7 11 16 13 12 10 11 12 12 5 0 2 1 3 3 4 6 7 8 9 9 9 9 9 9 9 9 8 9 10 11 11 11 11 11 11 11 11 12 11 12 13
4 4 8 10 10 7 6 6 8 8 5 0 2 2 3 2 2 5 8 9 9 9 9 9 9 8 9 9 9 9 10 11 11 11 12 12 12 12 12 12 11 12 12 13
2 2 8 8 4 4 4 0 2 3 2 2 2 5 5 2 2 7 8 8 9 8 9 9 8 9 9 9 10 10 11 11 11 12 12 13 12 13 13 12 11 12 13 13
4 4 9 10 5 2 4 2 3 4 1 2 4 4 4 3 4 6 8 9 8 9 9 9 10 10 10 10 10 11 12 12 12 12 13 14 14 14 13 13 13 12 12 13
5 5 8 8 4 1 3 3 0 2 2 4 4 6 5 6 8 9 9 8 9 9 9 10 10 10 10 11 11 12 13 13 13 13 13 15 15 15 13 12 14 13 13 13
6 6 9 8 5 2 3 4 1 1 1 2 2 6 8 9 9 9 9 10 9 10 9 10 10 10 11 12 13 13 14 14 14 13 13 14 14 13 14 14 14 13 14 13
7 6 9 4 3 4 3 1 1 2 4 6 7 9 9 8 8 9 9 9 9 9 11 10 10 10 13 15 15 14 14 14 14 13 13 13 14 14 13 14 15 14 13 13
10 9 2 3 5 4 3 2 3 4 6 6 7 7 7 7 8 8 9 9 9 10 12 11 10 10 14 17 16 15 15 15 14 14 12 12 13 15 14 13 12 13 12 13
5 4 3 5 5 3 3 4 5 5 6 5 6 7 8 8 8 9 9 10 9 11 14 15 13 12 13 16 15 15 16 16 14 14 14 12 11 12 12 13 13 13 13 13
4 2 3 3 3 3 3 2 2 3 4 4 5 7 7 8 9 9 9 9 9 11 14 17 16 15 13 13 14 15 16 15 14 13 14 14 12 12 14 13 15 16 13 13
6 4 4 3 3 1 2 3 4 5 6 6 5 7 8 9 9 9 11 11 12 13 15 16 16 16 15 13 13 15 16 14 13 13 13 13 14 15 19 20 25 26 24 22
4 3 4 3 2 1 2 3 4 5 6 7 7 7 8 9 9 10 12 13 14 15 15 16 17 17 16 14 13 14 16 16 13 13 13 14 14 14 16 18 21 23 24 24
3 3 2 2 2 3 3 4 5 5 6 7 8 8 9 10 11 12 13 14 14 15 16 15 17 17 16 15 14 15 15 17 17 13 13 13 14 14 14 15 16 14 17 22
3 3 3 3 3 4 4 4 6 7 8 9 8 9 11 12 13 14 14 14 14 14 15 16 17 18 16 15 15 16 15 13 13 13 13 13 13 14 14 15 14 14 13 15
2 0 1 2 4 5 6 6 7 9 10 10 11 12 12 13 14 14 13 12 13 16 16 16 16 17 16 15 15 14 13 21 20 14 13 13 13 13 13 13 13 13 13 13
2 1 2 3 5 7 7 8 8 10 11 12 13 14 13 13 14 14 13 12 11 13 14 15 16 15 15 14 14 13 13 16 22 17 13 13 13 13 13 13 13 12 12 14
2 2 3 5 6 8 9 10 10 11 12 13 14 13 13 13 15 16 16 14 13 12 13 13 13 15 13 13 13 12 13 13 13 13 13 13 14 12 12 12 13 13 12 12
2 3 5 7 8 9 10 11 12 11 12 12 13 14 13 13 14 15 14 13 15 16 13 11 22 17 13 16 19 12 13 14 14 13 13 16 15 11 11 12 12 12 11 10
5 6 8 9 10 10 11 13 13 13 12 12 13 14 14 14 13 13 13 12 11 11 13 16 15 12 13 14 21 12 12 13 14 13 13 12 12 12 11 11 11 11 10 9
8 9 10 11 12 12 12 13 13 14 14 12 12 14 15 15 13 11 11 13 11 11 13 20 13 11 12 16 20 11 12 13 13 12 12 12 11 11 11 11 10 10 9 9
8 9 11 12 13 14 12 11 12 13 14 13 13 13 13 14 12 11 10 10 12 17 14 10 9 16 21 22 11 11 12 13 12 12 11 11 11 11 11 11 10 9 8 7
10 10 12 13 13 14 13 12 12 12 13 14 13 13 13 12 10 11 12 9 9 18 15 9 17 26 28 15 10 12 12 13 12 12 11 10 10 10 10 10 9 8 8 7
11 11 12 12 12 12 14 14 12 11 12 12 12 12 12 11 10 8 9 16 20 22 12 16 25 26 24 11 10 11 11 11 12 11 10 10 9 9 9 9 8 7 7 7
11 11 12 11 11 11 12 13 12 11 11 9 10 11 9 8 9 10 10 11 17 19 11 16 23 24 15 10 11 12 11 11 12 12 10 10 9 9 8 8 7 7 6 6
11 10 11 11 10 10 10 10 10 10 9 10 10 8 8 8 9 9 9 10 12 17 13 10 12 15 11 10 11 12 11 12 12 10 10 10 10 9 8 7 8 6 5 5
10 9 9 9 9 8 8 9 10 10 9 10 11 10 9 9 9 9 10 10 10 10 10 10 9 10 10 10 11 11 11 10 10 10 9 9 8 8 7 7 6 5 5 4
Wind_Direction
245 252 246 249 257 247 227 216 231 249 252 271 280 273 260 329 345 -0 349 335 319 307 300 299 301 302 302 303 305 308 310 309 303 299 297 295 294 292 289 286 284 281 282 282
273 273 281 276 266 256 246 232 234 257 271 280 90 98 24 350 355 344 321 311 305 304 304 304 301 300 301 302 303 305 305 301 298 299 299 297 295 292 290 288 286 283 280 280
265 312 342 281 257 231 218 218 207 226 241 54 37 351 315 303 325 313 302 298 299 300 297 296 294 293 295 293 298 302 300 298 298 299 298 296 296 295 292 290 286 284 282 279
209 12 254 246 243 226 211 280 87 106 85 81 284 280 272 239 298 301 298 299 301 299 297 295 293 295 296 297 301 302 300 298 297 298 297 296 296 294 292 288 286 285 284 282
159 224 277 290 281 204 161 130 68 104 84 319 299 315 298 265 307 300 298 297 295 294 294 296 298 299 302 303 304 304 302 299 298 297 297 298 297 296 294 293 291 286 284 285
161 198 244 253 269 297 93 206 105 92 18 333 1 344 289 294 308 303 302 302 302 303 302 303 303 306 307 306 307 304 302 300 298 296 295 296 296 296 295 292 290 289 286 283
176 215 259 257 270 120 195 240 157 72 319 309 268 246 267 288 292 291 295 297 300 304 304 301 304 309 306 305 303 301 301 301 299 296 294 295 295 295 296 295 293 291 289 287
165 201 250 262 115 142 193 166 192 260 262 263 261 270 281 289 293 302 304 304 307 308 306 304 306 308 306 306 304 303 302 301 299 297 297 301 298 298 296 296 296 295 294 293
191 208 208 86 115 124 138 196 249 255 262 265 274 282 292 294 301 302 301 303 306 306 307 308 305 301 302 305 306 306 304 302 302 301 297 296 297 299 300 298 296 296 295 296
220 244 142 116 124 144 199 217 241 252 265 273 282 290 297 297 300 304 303 307 309 311 312 313 311 303 296 302 305 305 305 306 305 304 303 299 295 295 297 297 296 296 296 295
240 247 136 167 184 211 234 251 283 296 283 287 294 297 296 300 302 304 305 305 306 308 308 310 311 309 305 305 307 307 306 305 305 302 302 303 299 296 296 289 289 294 294 293
230 216 184 231 249 273 326 329 324 322 319 316 307 298 301 301 299 301 304 306 308 306 307 309 310 310 310 308 306 308 310 309 307 305 304 303 304 303 297 295 297 298 297 297
184 178 184 215 241 289 305 312 312 309 303 304 302 296 298 298 297 299 302 304 305 306 306 308 310 311 312 311 309 306 306 307 307 305 304 305 304 304 305 305 302 302 302 302
155 142 174 225 265 303 310 310 309 305 297 290 289 293 295 295 297 299 299 299 301 303 305 307 310 311 312 312 309 306 305 307 308 303 302 302 301 300 301 303 307 306 305 305
170 172 209 253 306 327 330 326 321 312 306 303 298 296 295 296 297 296 296 297 299 301 304 308 310 310 312 311 309 307 307 306 304 302 301 301 300 301 301 300 301 304 306 307
233 321 5 342 327 322 323 319 308 300 299 297 297 295 291 289 290 293 294 295 300 304 306 307 306 306 309 308 307 307 306 307 311 307 305 304 304 303 303 303 303 304 306 307
213 280 309 308 303 299 292 285 280 284 288 290 290 291 293 294 296 297 297 294 289 291 296 298 300 303 305 304 305 307 306 307 310 308 304 302 302 302 303 304 305 306 306 307
190 229 256 265 276 286 291 288 284 284 285 285 290 293 293 295 298 300 301 302 300 296 292 292 297 306 305 306 308 306 305 305 306 305 305 305 305 306 307 308 309 308 309 311
4 308 294 284 277 277 279 282 283 282 283 286 290 291 290 289 290 293 298 302 305 306 303 300 311 316 307 309 314 306 306 308 309 307 306 308 311 310 310 308 307 308 310 313
312 296 289 286 284 280 281 284 286 287 286 285 287 290 293 292 291 294 297 294 289 289 295 304 309 306 307 308 312 309 312 312 310 311 310 310 312 313 312 311 312 312 314 314
298 294 291 289 288 284 281 282 286 289 289 287 286 289 291 293 293 293 297 302 297 291 300 310 316 310 311 314 316 316 314 312 312 312 311 313 314 313 312 312 313 316 318 320
288 286 286 287 287 289 287 284 283 286 290 290 288 287 290 295 295 292 281 284 294 306 313 305 306 312 320 321 319 316 314 313 312 311 311 312 314 314 313 315 316 318 319 317
282 282 283 284 285 287 290 288 284 285 286 287 288 289 289 290 293 296 302 298 299 308 315 303 312 319 323 325 318 315 313 312 311 311 312 312 311 312 314 315 317 317 316 316
282 283 282 283 286 288 291 290 287 284 281 282 281 280 283 290 291 280 279 300 311 312 310 309 318 321 325 324 315 313 311 310 310 310 312 312 311 311 311 312 313 314 316 317
281 284 285 287 290 289 288 291 294 291 287 286 282 279 277 273 281 293 294 296 305 312 308 311 317 321 322 312 312 312 311 308 310 314 313 312 310 311 311 311 312 314 316 317
285 287 286 283 282 286 289 291 293 293 294 296 295 289 285 283 281 287 293 294 296 307 310 306 307 312 313 311 311 311 311 310 311 310 308 308 307 309 310 311 311 312 312 313
287 286 288 290 287 281 283 286 289 292 292 293 297 296 293 293 293 294 296 298 301 302 302 304 305 307 309 310 311 311 310 308 308 307 307 307 307 307 307 307 307 308 311 313
Height
1522 1521 1521 1520 1519 1518 1521 1521 1522 1514 1511 1504 1502 1501 1501 1501 1500 1499 1497 1495 1493 1490 1486 1482 1478 1473 1469 1465 1461 1456 1451 1446 1441 1436 1431 1425 1419 1414 1408 1403 1398 1392 1386 1381
1521 1518 1518 1517 1510 1510 1511 1511 1510 1507 1504 1500 1499 1500 1500 1499 1498 1497 1495 1492 1489 1485 1481 1477 1473 1468 1464 1459 1455 1450 1445 1440 1434 1429 1423 1417 1411 1405 1399 1393 1388 1382 1377 1371
1528 1523 1521 1517 1504 1502 1503 1501 1502 1503 1502 1499 1499 1499 1498 1497 1496 1494 1491 1488 1484 1480 1476 1472 1468 1463 1458 1453 1449 1443 1438 1433 1427 1421 1414 1408 1402 1396 1390 1384 1378 1372 1367 1362
1529 1525 1526 1505 1496 1496 1497 1498 1497 1498 1499 1499 1499 1498 1496 1495 1493 1490 1487 1483 1480 1476 1471 1467 1462 1457 1453 1447 1442 1436 1431 1425 1419 1413 1406 1400 1393 1387 1381 1375 1368 1362 1357 1352
1530 1528 1519 1503 1494 1492 1494 1498 1498 1499 1499 1498 1497 1495 1493 1492 1490 1487 1483 1479 1475 1471 1466 1461 1457 1452 1446 1441 1435 1429 1423 1417 1411 1405 1398 1391 1384 1378 1372 1365 1358 1353 1347 1342
1525 1524 1520 1500 1492 1490 1493 1499 1499 1497 1497 1496 1494 1496 1492 1489 1486 1482 1479 1475 1470 1466 1461 1456 1451 1446 1440 1434 1428 1422 1415 1409 1403 1397 1390 1383 1376 1369 1362 1356 1349 1343 1337 1333
1521 1521 1508 1494 1490 1490 1500 1499 1497 1496 1495 1494 1493 1492 1488 1485 1481 1478 1474 1470 1465 1461 1456 1451 1446 1440 1433 1427 1421 1415 1408 1401 1394 1388 1382 1374 1367 1360 1353 1346 1339 1333 1328 1324
1517 1518 1507 1489 1489 1493 1495 1494 1494 1493 1492 1491 1489 1486 1483 1479 1476 1472 1468 1464 1460 1455 1450 1446 1441 1434 1427 1420 1414 1407 1399 1392 1385 1379 1372 1365 1358 1350 1344 1337 1330 1324 1319 1314
1498 1495 1490 1488 1489 1491 1492 1492 1491 1490 1488 1487 1484 1481 1478 1474 1471 1467 1464 1459 1455 1450 1444 1438 1434 1428 1420 1413 1405 1398 1390 1382 1375 1369 1362 1356 1349 1341 1334 1328 1322 1316 1311 1306
1491 1488 1487 1488 1489 1490 1490 1489 1488 1486 1484 1482 1479 1476 1473 1470 1466 1462 1458 1454 1449 1443 1437 1431 1425 1420 1414 1406 1398 1389 1381 1373 1366 1359 1352 1346 1340 1333 1327 1320 1315 1309 1304 1299
1487 1486 1486 1487 1487 1487 1486 1485 1483 1481 1479 1477 1475 1472 1469 1465 1462 1458 1453 1448 1443 1438 1431 1424 1417 1411 1405 1398 1390 1381 1372 1365 1358 1351 1344 1336 1330 1325 1319 1313 1310 1304 1298 1293
1484 1482 1483 1484 1484 1483 1482 1480 1479 1477 1475 1473 1471 1468 1465 1461 1457 1453 1448 1443 1437 1431 1424 1417 1410 1402 1396 1389 1382 1373 1364 1357 1350 1342 1335 1329 1322 1315 1310 1307 1301 1297 1292 1287
1478 1479 1480 1481 1481 1480 1479 1477 1476 1474 1472 1470 1467 1464 1461 1456 1452 1447 1442 1437 1431 1424 1417 1410 1402 1394 1388 1381 1373 1366 1358 1350 1342 1335 1329 1322 1315 1309 1301 1296 1293 1288 1283 1279
1477 1478 1478 1478 1478 1477 1476 1475 1473 1471 1469 1466 1463 1460 1456 1451 1446 1441 1436 1430 1424 1417 1410 1402 1394 1387 1380 1373 1366 1358 1351 1344 1336 1329 1322 1316 1310 1303 1297 1291 1284 1278 1275 1271
1475 1476 1476 1475 1475 1474 1473 1471 1469 1467 1464 1461 1458 1454 1450 1445 1439 1434 1429 1423 1416 1409 1402 1395 1387 1379 1373 1365 1358 1351 1344 1336 1329 1322 1316 1310 1304 1298 1292 1286 1280 1273 1267 1262
1473 1473 1473 1473 1472 1471 1470 1468 1465 1462 1459 1456 1452 1448 1443 1438 1432 1426 1421 1415 1408 1401 1394 1387 1379 1372 1365 1358 1351 1344 1337 1330 1324 1317 1310 1304 1298 1292 1286 1280 1274 1268 1262 1257
1471 1471 1471 1470 1469 1468 1466 1464 1462 1458 1454 1450 1446 1441 1436 1430 1424 1418 1412 1407 1401 1394 1388 1380 1372 1365 1358 1352 1345 1337 1330 1323 1317 1311 1304 1298 1292 1286 1281 1275 1269 1263 1258 1253
1469 1469 1469 1468 1467 1464 1462 1459 1456 1452 1448 1444 1439 1433 1428 1423 1416 1410 1404 1397 1391 1385 1380 1373 1365 1358 1351 1345 1338 1331 1324 1317 1311 1305 1299 1293 1287 1281 1276 1270 1264 1258 1252 1248
1467 1467 1466 1465 1463 1460 1457 1453 1449 1445 1441 1436 1431 1425 1420 1415 1409 1403 1396 1390 1383 1376 1370 1365 1358 1351 1344 1338 1332 1325 1318 1312 1305 1299 1293 1288 1282 1276 1271 1265 1259 1254 1249 1244
1464 1463 1462 1459 1457 1454 1450 1446 1442 1437 1433 1429 1423 1417 1411 1406 1401 1395 1388 1382 1377 1371 1363 1357 1350 1344 1338 1331 1325 1319 1313 1307 1300 1294 1288 1283 1277 1271 1266 1261 1255 1250 1246 1241
1461 1459 1456 1453 1450 1446 1443 1438 1434 1429 1424 1420 1415 1409 1403 1398 1393 1387 1380 1373 1368 1364 1357 1350 1344 1338 1331 1325 1320 1314 1307 1301 1295 1289 1284 1278 1273 1267 1262 1257 1252 1247 1243 1238
1455 1452 1449 1446 1442 1437 1434 1430 1426 1420 1415 1411 1406 1401 1395 1389 1384 1379 1374 1369 1361 1356 1350 1344 1338 1332 1326 1320 1314 1308 1302 1296 1290 1285 1279 1274 1269 1263 1258 1254 1249 1245 1240 1236
1449 1445 1442 1438 1434 1428 1424 1420 1416 1412 1406 1402 1397 1392 1388 1382 1377 1372 1365 1360 1355 1349 1344 1337 1332 1326 1320 1314 1308 1302 1296 1291 1285 1280 1275 1270 1265 1260 1255 1251 1247 1242 1238 1235
1440 1437 1433 1429 1424 1419 1414 1409 1406 1402 1397 1393 1389 1385 1380 1375 1369 1365 1360 1354 1349 1343 1337 1331 1326 1320 1314 1308 1302 1297 1291 1286 1281 1276 1271 1266 1261 1257 1252 1248 1244 1240 1237 1234
1431 1427 1423 1419 1415 1410 1405 1401 1396 1392 1388 1384 1380 1377 1373 1368 1363 1357 1352 1346 1341 1336 1329 1324 1319 1314 1308 1302 1297 1291 1286 1281 1277 1272 1267 1262 1257 1253 1250 1246 1242 1239 1235 1233
1422 1419 1415 1411 1407 1403 1398 1393 1389 1384 1380 1376 1371 1368 1364 1360 1355 1350 1344 1339 1334 1329 1323 1318 1312 1307 1302 1297 1292 1286 1281 1276 1271 1267 1262 1258 1254 1250 1247 1243 1240 1237 1234 1232
1414 1410 1406 1402 1398 1395 1391 1386 1382 1378 1374 1369 1364 1360 1356 1352 1347 1342 1337 1332 1327 1321 1316 1311 1306 1301 1296 1291 1286 1281 1276 1271 1267 1263 1259 1255 1251 1248 1244 1241 1238 1236 1233 1231